Home > Weather > Monterey > Past weeks

Flag for USA Weather for the Past 2 Weeks in Monterey, California, USA

Now
55 °F

Passing clouds.


Feels Like: 54 °F
Forecast: 54 / 61 °F
Wind: 5 mph from West

Location: Monterey Peninsula Airport

Current Time: May 3, 2016 at 9:23:12 PM

Latest Report: May 3, 2016 at 8:54 PM


Visibility: 10 mi

Pressure: 29.98 "Hg

Humidity: 80%

Dew Point: 49 °F

Location of MontereyLocation

Historic Weather in Monterey — Graph

°F

Monterey Temperature Yesterday

Maximum temperature yesterday: 63 °F (at 12:54 PM)
Minimum temperature yesterday: 52 °F (at 4:54 AM)
Average temperature yesterday: 56 °F

High & Low Weather Summary for the Past Weeks

 TemperatureHumidityPressure
High80 °F (May 1, 1:54 PM)96% (May 3, 3:54 AM)30.26 "Hg (May 3, 3:54 AM)
Low47 °F (Apr 20, 4:54 AM)15% (Apr 19, 2:54 PM)29.85 "Hg (May 1, 5:54 AM)
Average57 °F71%30.03 "Hg
* Reported Apr 18 7:54 PM — May 3 7:54 PM, Monterey, Weather by CustomWeather, © 2016

Note: Actual official high and low records may vary slightly from our data, if they occured in-between our weather recording intervals... More about our weather records

Advertising

Monterey Weather History for the Previous 24 Hours

Scroll right to see more
 ConditionsComfort  
Time TempWeatherWind HumidityBarometerVisibility
7:54 PM
Tue, May 3
56 °FSunny.No wind77%29.98 "Hg10 mi
6:54 PM57 °FSunny.6 mph74%29.98 "Hg10 mi
5:54 PM59 °FSunny.9 mph69%29.98 "Hg10 mi
4:54 PM61 °FSunny.10 mph67%29.99 "Hg10 mi
3:54 PM61 °FSunny.13 mph67%30.00 "Hg10 mi
2:54 PM59 °FSunny.12 mph72%30.02 "Hg10 mi
1:54 PM59 °FSunny.10 mph75%30.03 "Hg10 mi
12:54 PM59 °FSunny.12 mph75%30.04 "Hg10 mi
11:54 AM58 °FScattered clouds.8 mph81%30.05 "Hg8 mi
10:54 AM56 °FScattered clouds.No wind84%30.04 "Hg7 mi
9:54 AM55 °FLow clouds.5 mph83%30.04 "Hg6 mi
8:54 AM52 °FFog.3 mph93%30.04 "Hg5 mi
7:54 AM53 °FFog.7 mph89%30.03 "Hg6 mi
6:54 AM51 °FPassing clouds.No wind92%30.01 "Hg9 mi
5:54 AM51 °FFog.6 mph96%30.01 "Hg6 mi
4:54 AM51 °FLow clouds.5 mph92%30.02 "Hg8 mi
3:54 AM51 °FLow clouds.5 mph96%30.03 "Hg7 mi
2:54 AM52 °FLow clouds.5 mph93%30.03 "Hg9 mi
1:54 AM53 °FLow clouds.No wind89%30.05 "Hg10 mi
12:54 AM53 °FLow clouds.5 mph89%30.07 "Hg10 mi
11:54 PM
Mon, May 2
54 °FLow clouds.3 mph86%30.08 "Hg10 mi
10:54 PM54 °FLow clouds.5 mph86%30.09 "Hg10 mi
9:54 PM54 °FOvercast.5 mph86%30.09 "Hg10 mi
Weather by CustomWeather, © 2016

See weather overviewHow to use our weather pages